Tracking 25710 objects as of 6-Jul-2022
HD Live streaming from Space Station
objects crossing your sky now

FENGYUN 1C DEB

Track FENGYUN 1C DEB now!
10-day predictions


NORAD ID: 31655
Int'l Code: 1999-025CBM
Perigee: 829.0 km
Apogee: 1,326.4 km
Inclination: 99.3 °
Period: 106.6 minutes
Semi major axis: 7448 km
RCS: 0.0098 m2 (small)
Launch date: May 10, 1999
Source: People's Republic of China (PRC)
Launch site: Taiyaun Space Center, China (TSC)

Note: This is SATELLITE DEBRIS
aabbcc
Your satellite tracking list
Your tracking list is empty




NASA's NSSDC Master Catalog

Two Line Element Set (TLE):
1 31655U 99025CBM 22184.73963230  .00001088  00000-0  12414-2 0  9996
2 31655  99.2798 183.0734 0333872 101.9659  71.1923 13.50458895426653
Source of the keplerian elements: AFSPC